This demonstration page uses our WeatherBlox Daily Observations layout. Learn more.

Left ArrowRight Arrow

Hourly Observations for February 12, 2022

Temp ( °F °C ) Dew Point ( °F °C ) Humidity (%) Winds ( mph kmh ) Pressure ( in mb ) Visibility ( mi km ) Precip ( " mm )
12:56 am 00:56 Clear 11 -11.7 4 -15.6 73 73 NW 7 11 30.54 1034 10 16 0.00 0.00
1:56 am 01:56 Clear 10 -12.2 4 -15.6 76 76 WNW 5 7 30.55 1035 10 16 0.00 0.00
2:56 am 02:56 Clear 10 -12.2 4 -15.6 76 76 NW 5 7 30.55 1035 10 16 0.00 0.00
3:56 am 03:56 Clear 9 -12.8 3 -16.1 77 77 NW 5 7 30.54 1034 10 16 0.00 0.00
4:56 am 04:56 Clear 8 -13.3 2 -16.7 76 76 NW 5 7 30.54 1034 10 16 0.00 0.00
5:56 am 05:56 Cloudy 11 -11.7 4 -15.6 73 73 WSW 3 6 30.54 1034 10 16 0.00 0.00
6:56 am 06:56 Cloudy 12 -11.1 6 -14.4 77 77 SSW 5 7 30.53 1034 10 16 0.00 0.00
7:56 am 07:56 Cloudy 13 -10.6 9 -12.8 84 84 S 6 9 30.51 1033 10 16 0.00 0.00
8:56 am 08:56 Cloudy 17 -8.3 10 -12.2 74 74 SW 8 13 30.51 1033 10 16 0.00 0.00
9:56 am 09:56 Sunny 24 -4.4 15 -9.4 68 68 SW 12 19 30.48 1032 10 16 0.00 0.00
10:56 am 10:56 Sunny 29 -1.7 17 -8.3 61 61 W 12 19 30.48 1032 10 16 0.00 0.00
11:56 am 11:56 Sunny 35 1.7 16 -8.9 46 46 NW 13 20 30.43 1031 10 16 0.00 0.00
12:56 pm 12:56 Sunny 37 2.8 15 -9.4 41 41 WNW 16 26 30.39 1029 10 16 0.00 0.00
1:56 pm 13:56 Mostly Sunny 39 3.9 15 -9.4 38 38 W 16 26 30.34 1028 10 16 0.00 0.00
2:56 pm 14:56 Sunny 40 4.4 13 -10.6 33 33 W 10 17 30.31 1027 10 16 0.00 0.00
3:56 pm 15:56 Sunny 41 5 10 -12.2 28 28 W 12 19 30.31 1026 10 16 0.00 0.00
4:56 pm 16:56 Sunny 40 4.4 6 -14.4 24 24 NW 10 17 30.29 1026 10 16 0.00 0.00
5:56 pm 17:56 Mostly Sunny 39 3.9 4 -15.6 23 23 WNW 5 7 30.27 1025 10 16 0.00 0.00
6:56 pm 18:56 Mostly Cloudy 35 1.7 4 -15.6 27 27 SW 5 7 30.25 1024 10 16 0.00 0.00
7:56 pm 19:56 Cloudy 34 1.1 5 -15 29 29 SSW 9 15 30.22 1024 10 16 0.00 0.00
8:56 pm 20:56 Mostly Cloudy 34 1.1 6 -14.4 31 31 SW 9 15 30.21 1023 10 16 0.00 0.00
9:56 pm 21:56 Cloudy 38 3.3 8 -13.3 29 29 WSW 13 20 30.20 1023 10 16 0.00 0.00
10:56 pm 22:56 Mostly Clear 39 3.9 9 -12.8 29 29 NW 15 24 30.22 1024 10 16 0.00 0.00
11:56 pm 23:56 Clear 36 2.2 13 -10.6 39 39 NNW 12 19 30.23 1024 10 16 0.00 0.00

Powered by AerisWeather